Ashgabat, Turkmenistan

10:42 PM +05 on December 05, 2019 (GMT +0500)
Ashgabat

Weather History for UTAA - November, 2019

Change the Weather History Date:

Tuesday, November 12, 2019

  Actual Average (WUND) Record (WUND)
Temperature  
Mean Temperature 48 °F -  
Max Temperature 62 °F 57 °F - (-1)
Min Temperature 35 °F 37 °F - (-1)
Degree Days  
Heating Degree Days 16    
Moisture  
Dew Point 25 °F    
Average Humidity 42    
Maximum Humidity 70    
Minimum Humidity 12    
Precipitation  
Precipitation 0.00 in 0.03 in - ()
Sea Level Pressure  
Sea Level Pressure 30.30 in    
Wind  
Wind Speed 3 mph ()    
Max Wind Speed 7 mph    
Max Gust Speed -    
Visibility 6.1 miles    
Events      
Averages and records for this station are not official NWS values.
T = Trace of Precipitation, MM = Missing Value Source: Averaged Metar Reports

Daily Weather History Graph

Daily Weather History Graph

Search for Another Location

Airport or City:

Astronomy

Nov. 12, 2019 Rise Set
Actual Time 7:43 AM +05 5:57 PM +05
Civil Twilight 7:15 AM +05 6:25 PM +05
Nautical Twilight 6:43 AM +05 6:57 PM +05
Astronomical Twilight 6:12 AM +05 7:28 PM +05
Moon 6:10 PM +05 (11/12) 7:11 AM +05 (11/12)
Length of Visible Light 11h 10m
Length of Day
10h 14m
Full, 100% of the Moon is Illuminated
Nov 12
Full
Nov 12
Full
Nov 20
Last Quarter
Nov 26
New
Dec 4
First Quarter

Hourly Weather History & Observations

Time (+05) Temp. Windchill Dew Point Humidity Pressure Visibility Wind Dir Wind Speed Gust Speed Precip Events Conditions
12:00 AM 46.4 °F 44.3 °F 26.6 °F 46% 30.30 in 6.2 mi ESE 4.6 mph - N/A   Unknown
1:00 AM 41.0 °F - 26.6 °F 57% 30.30 in 6.2 mi ESE 2.3 mph - N/A   Unknown
2:00 AM 43 °F - 28 °F 44% 30.33 in 6 mi South 4.5 mph - -  
2:00 AM 39.2 °F - 26.6 °F 61% 30.27 in 6.2 mi South 2.3 mph - N/A   Unknown
3:00 AM 37.4 °F - 24.8 °F 60% 30.27 in 6.2 mi Calm Calm - N/A   Unknown
4:00 AM 37.4 °F - 24.8 °F 60% 30.27 in 6.2 mi Calm Calm - N/A   Unknown
5:00 AM 37 °F - 26 °F 54% 30.33 in 6 mi SSW 2.2 mph - -  
5:00 AM 35.6 °F - 24.8 °F 65% 30.27 in 6.2 mi SSW 2.3 mph - N/A   Unknown
6:00 AM 35.6 °F - 24.8 °F 65% 30.27 in 6.2 mi Variable 2.3 mph - N/A   Unknown
7:00 AM 35.6 °F 31.7 °F 24.8 °F 65% 30.30 in 6.2 mi East 4.6 mph - N/A   Unknown
8:00 AM 37 °F - 29 °F 62% 30.35 in 6 mi ESE 4.5 mph - -  
8:00 AM 35.6 °F - 26.6 °F 70% 30.30 in 6.2 mi Variable 2.3 mph - N/A   Unknown
9:00 AM 41.0 °F - 26.6 °F 57% 30.30 in 6.2 mi Calm Calm - N/A   Unknown
10:00 AM 46.4 °F 44.3 °F 23.0 °F 40% 30.33 in 6.2 mi ESE 4.6 mph - N/A   Unknown
11:00 AM 51 °F - 24 °F 22% 30.36 in 6 mi 6.7 mph - -  
11:00 AM 51.8 °F - 26.6 °F 38% 30.33 in 6.2 mi East 6.9 mph - N/A   Unknown
12:00 PM 55.4 °F - 24.8 °F 31% 30.30 in 6.2 mi ENE 4.6 mph - N/A   Unknown
1:00 PM 57.2 °F - 24.8 °F 29% 30.30 in 6.2 mi ENE 4.6 mph - N/A   Unknown
2:00 PM 60 °F - 25 °F 15% 30.32 in 6 mi East 4.5 mph - -  
2:00 PM 60.8 °F - 23.0 °F 23% 30.27 in 6.2 mi East 4.6 mph - N/A   Unknown
3:00 PM 62.6 °F - 21.2 °F 20% 30.27 in 6.2 mi Variable 2.3 mph - N/A   Unknown
4:00 PM 62.6 °F - 19.4 °F 19% 30.27 in 6.2 mi NNW 4.6 mph - N/A   Unknown
5:00 PM 62 °F - 23 °F 12% 30.30 in 6 mi NW 4.5 mph - -  
5:00 PM 60.8 °F - 23.0 °F 23% 30.27 in 6.2 mi Variable 2.3 mph - N/A   Unknown
6:00 PM 57.2 °F - 26.6 °F 31% 30.27 in 6.2 mi NNE 4.6 mph - N/A   Unknown
7:00 PM 51.8 °F - 26.6 °F 38% 30.27 in 6.2 mi NE 2.3 mph - N/A   Unknown
8:00 PM 52 °F - 29 °F 28% 30.32 in 6 mi SE 2.2 mph - -  
8:00 PM 50.0 °F - 26.6 °F 40% 30.30 in 6.2 mi SE 2.3 mph - N/A   Unknown
9:00 PM 44.6 °F 42.2 °F 24.8 °F 46% 30.30 in 5.6 mi SW 4.6 mph - N/A   Unknown
10:00 PM 44.6 °F - 24.8 °F 46% 30.30 in 6.2 mi South 2.3 mph - N/A   Unknown
11:00 PM 43 °F - 26 °F 38% 30.34 in 6 mi South 4.5 mph - -  
11:00 PM 42.8 °F 40.1 °F 24.8 °F 49% 30.30 in 6.2 mi South 4.6 mph - N/A   Unknown